Wind_Speed
47 47 48 51 52 51 50 50 51 51 52 52 53 52 52 51 51 51 51 50 49 47 46 48 47 48 50 52 54 56 58 60 60 61 62 62 62 62 62 63 63 63 63 63 62 61 60 61 62 62 63 63 63 64 64 64 64 63 63 64 64 64 63 62 61 60 59 59 59 59 59 59 58 58 58 58 57 57 57 58 57 57 57 56 56 56
49 48 50 54 53 52 52 52 52 52 53 53 53 52 51 51 50 50 49 48 48 46 45 46 46 46 49 52 54 56 58 60 60 61 62 63 64 64 64 65 66 66 66 66 66 65 64 63 63 63 63 63 63 64 65 66 66 66 65 65 66 67 67 66 65 65 64 63 63 62 62 62 62 62 61 60 60 60 60 61 61 61 61 60 60 59
49 49 53 54 53 52 52 52 53 52 52 52 51 50 49 49 48 47 48 48 47 46 45 45 44 44 48 51 53 55 57 59 59 60 62 64 65 65 65 66 67 68 68 68 69 69 68 68 67 66 65 65 65 65 65 66 67 68 68 68 68 68 69 69 69 69 68 67 67 66 66 66 66 66 65 65 64 64 64 64 65 65 65 64 63 63
47 49 53 53 52 53 52 53 53 52 52 51 50 49 47 48 47 46 47 47 47 47 47 47 45 44 48 50 51 53 56 57 57 58 60 63 64 65 66 67 67 68 69 69 70 70 70 70 70 70 69 68 68 68 67 68 68 68 69 69 70 70 71 71 72 72 72 71 71 70 70 69 69 69 69 69 69 69 69 69 68 68 68 68 67 66
44 49 52 51 52 52 51 52 53 52 51 50 50 49 48 48 48 48 48 49 48 49 49 49 47 46 51 54 53 54 56 56 56 57 59 60 62 64 65 66 67 68 69 69 70 70 71 71 71 71 71 71 71 71 71 71 70 70 70 71 71 72 73 73 74 75 75 75 75 74 74 74 73 73 73 73 73 73 73 73 73 72 71 71 71 70
42 48 50 50 52 51 51 53 55 53 52 54 54 53 51 52 53 52 52 51 51 50 51 51 49 48 52 56 57 57 56 57 58 58 59 60 61 63 64 66 67 68 69 69 70 70 70 70 71 71 71 71 72 73 74 75 75 74 73 73 73 73 74 75 76 76 78 78 78 78 78 78 77 77 77 77 76 77 77 77 77 76 76 75 74 73
42 47 48 50 53 54 54 57 59 58 57 59 60 59 58 58 59 58 57 56 54 53 53 55 56 53 51 56 60 59 57 59 61 62 61 61 62 63 64 65 67 68 69 70 70 70 70 71 71 72 71 71 71 72 75 77 78 79 78 77 77 76 76 77 77 78 79 80 81 82 82 82 81 81 81 81 81 81 81 81 81 81 80 80 79 78
44 46 47 49 52 54 57 59 61 62 61 62 63 64 64 64 64 63 63 62 60 59 57 59 65 61 52 56 63 63 61 62 65 66 66 65 65 65 66 67 68 69 70 71 72 72 73 73 74 75 75 74 73 74 75 77 79 81 82 82 81 80 80 80 80 80 81 81 83 84 85 86 86 86 85 85 85 85 85 85 85 85 85 84 83 82
48 48 50 51 52 53 54 56 58 60 61 62 64 66 66 67 66 66 67 66 65 64 61 65 73 68 56 56 64 66 66 66 68 69 70 70 69 69 69 69 70 71 72 74 75 75 76 76 77 78 79 80 80 79 79 79 80 81 83 85 85 85 84 83 83 83 83 84 84 85 86 88 89 90 90 90 90 89 89 89 89 89 89 88 88 87
52 52 55 56 57 57 56 57 58 59 60 62 65 66 67 68 68 69 68 69 70 66 63 70 77 74 62 59 65 69 69 69 71 73 73 73 73 73 73 72 72 73 74 75 77 77 78 79 80 81 82 84 85 85 85 83 82 82 84 86 88 89 89 88 87 86 85 85 86 86 87 89 90 92 93 94 94 94 93 93 93 93 93 92 92 91
57 57 58 60 61 62 63 63 63 64 64 65 67 68 69 70 70 71 71 72 73 68 67 73 78 76 68 63 67 72 72 73 75 76 76 76 76 77 77 76 76 76 77 78 80 81 81 82 83 84 85 86 86 87 88 88 87 86 85 87 89 91 92 93 93 92 91 89 88 88 89 90 91 93 94 95 97 98 98 98 97 97 97 97 96 96
61 61 62 63 64 66 68 69 69 69 70 70 71 71 73 74 74 74 74 75 76 71 71 76 77 77 72 67 71 74 75 77 78 78 79 79 80 80 80 80 80 80 80 81 82 84 85 85 86 87 89 90 90 90 90 91 91 90 89 89 91 92 93 95 96 96 96 95 94 93 92 91 92 93 95 96 98 99 101 102 102 101 101 101 101 100
65 65 65 66 67 69 71 72 74 75 75 75 76 77 78 78 79 79 78 80 79 75 75 78 78 77 74 72 75 76 77 79 80 81 82 82 82 83 83 84 84 84 85 85 86 87 88 89 90 91 92 93 94 94 93 93 93 94 93 93 93 95 96 98 99 100 100 100 100 99 97 96 95 95 96 97 98 99 101 103 105 106 106 105 105 105
68 69 70 70 71 73 75 76 78 80 80 80 81 82 83 84 85 85 83 84 82 80 80 81 81 80 76 75 77 78 80 81 82 84 85 85 86 86 87 88 89 90 91 91 91 91 92 93 94 95 96 96 96 96 96 95 95 95 96 96 96 97 99 101 103 104 105 105 104 104 104 103 102 101 100 100 100 101 102 103 105 107 108 109 109 109
70 71 73 75 76 77 79 80 82 83 84 85 85 87 87 89 92 91 88 88 87 86 85 85 85 84 80 80 81 81 83 84 86 88 89 90 91 92 93 94 95 96 96 96 96 96 96 97 98 98 99 99 99 98 98 97 96 96 96 97 98 99 101 103 105 107 109 110 110 110 110 110 109 108 107 106 105 104 105 105 106 107 109 110 111 112
72 73 75 78 79 81 82 84 85 87 87 88 89 90 92 93 96 97 95 95 95 94 90 88 89 88 86 85 85 86 88 89 91 93 94 95 96 97 98 98 99 100 100 100 100 100 100 100 100 101 101 101 101 101 99 98 97 96 96 97 98 99 101 104 107 109 111 113 115 116 116 116 116 115 115 113 112 111 110 109 109 110 110 111 112 113
75 75 77 79 81 83 85 87 89 89 90 92 92 94 96 97 99 101 102 100 100 99 96 93 93 93 92 91 90 92 94 95 96 98 98 99 100 100 100 100 101 101 102 102 102 102 102 102 102 102 102 103 103 102 101 100 99 97 96 96 97 98 100 103 107 110 112 114 116 118 120 121 122 122 121 121 120 118 117 116 115 115 114 114 114 114
79 78 79 81 84 86 87 89 91 92 93 95 96 98 100 102 103 105 106 104 103 104 102 99 99 98 97 96 95 97 98 98 100 101 101 102 102 102 102 102 102 103 104 104 104 104 104 104 104 104 104 105 105 105 104 103 101 100 98 97 97 98 99 102 105 109 112 115 117 119 120 122 124 126 127 127 127 126 125 124 123 122 121 120 119 118
84 84 83 84 87 89 90 91 93 95 97 98 100 102 105 106 107 108 109 107 107 108 108 106 104 101 100 99 100 101 101 101 102 103 103 103 103 103 104 104 104 105 105 106 106 106 106 106 107 107 108 108 108 108 107 106 104 102 101 100 98 98 98 100 103 106 109 113 117 120 122 123 124 126 128 130 132 132 132 131 130 129 128 127 125 124
90 90 88 88 90 93 93 94 96 99 101 103 105 107 109 110 112 112 112 110 110 112 112 111 108 103 100 100 102 104 104 103 103 104 104 104 104 105 106 106 107 107 107 108 108 108 109 109 110 111 111 112 112 111 110 109 107 106 104 103 102 100 99 99 100 103 106 109 113 117 121 124 126 127 128 130 132 134 135 136 136 136 135 134 133 131
94 95 94 92 93 95 96 98 100 102 105 107 109 111 112 113 114 114 113 111 112 115 115 115 112 107 103 103 104 106 105 105 105 104 105 105 106 107 108 108 109 109 109 110 110 111 112 112 113 114 115 115 115 114 113 111 110 109 107 106 104 103 102 101 101 102 104 107 110 113 116 120 124 127 130 131 133 134 135 137 139 140 141 140 140 139
98 99 98 97 96 97 100 103 104 106 108 110 112 114 115 116 116 116 115 113 114 117 118 119 118 113 107 106 108 108 107 107 107 107 106 107 108 109 109 110 110 111 111 112 112 113 114 115 116 117 118 118 118 117 115 113 112 111 110 109 108 106 105 104 103 103 104 105 107 110 113 116 119 122 126 129 133 135 137 138 139 141 142 144 145 145
101 102 102 101 101 102 104 107 109 110 112 114 116 118 119 119 119 119 119 118 119 120 121 123 123 117 112 111 111 110 110 110 110 110 110 110 111 111 111 112 112 113 114 114 115 116 117 118 119 120 121 121 120 119 117 116 115 114 113 112 110 109 108 107 106 106 106 106 107 108 111 113 116 118 121 123 127 131 135 138 140 142 143 144 146 147
104 105 106 106 106 107 109 111 113 115 116 118 120 121 121 121 121 121 122 122 123 124 124 126 126 120 116 115 114 113 113 114 113 113 113 113 114 114 114 114 115 116 117 118 119 120 121 122 123 123 123 123 121 120 119 118 117 115 114 113 111 110 110 109 109 108 108 108 109 109 110 111 113 116 118 120 122 124 127 131 135 139 142 145 147 149
107 109 110 111 111 111 112 114 117 119 121 122 124 124 123 122 122 123 124 125 127 127 127 128 126 122 119 118 116 116 117 116 116 116 116 116 116 116 117 117 118 119 120 121 123 124 125 125 125 125 125 124 123 122 120 119 117 115 113 111 110 109 109 109 109 109 109 110 110 110 111 111 113 114 116 118 119 121 123 124 127 130 134 138 142 146
111 112 113 114 116 116 116 118 121 123 125 126 125 125 123 122 123 125 126 129 131 131 130 129 126 123 122 121 119 119 119 118 119 119 119 118 118 119 120 120 121 122 123 124 126 126 127 127 127 127 126 125 123 122 120 119 117 114 112 109 108 107 107 107 107 108 108 109 109 110 111 111 112 113 115 116 118 119 121 122 123 124 126 128 131 135
115 115 116 118 120 121 122 123 125 126 127 126 124 123 123 124 126 127 130 133 134 134 133 130 127 127 125 122 120 121 121 121 122 122 121 121 121 122 123 124 125 126 126 127 127 128 128 128 127 127 125 124 122 120 119 117 115 112 109 107 106 105 105 104 104 105 105 106 107 108 109 110 111 112 114 115 116 118 119 120 121 122 123 124 125 127
119 119 120 122 124 126 127 129 129 128 127 126 124 124 125 126 128 131 134 135 135 135 135 131 129 130 127 123 122 123 124 125 125 124 124 124 124 125 126 127 128 129 129 129 129 129 129 128 127 125 124 122 120 118 115 113 110 107 105 104 103 102 102 101 101 102 102 103 104 105 106 107 109 110 112 113 115 116 117 118 119 120 121 122 123 124
123 124 125 127 129 130 131 133 133 131 129 128 127 127 128 129 132 135 136 135 135 138 137 132 131 130 127 124 125 126 128 128 127 127 127 127 128 129 130 130 131 131 130 130 129 129 128 127 125 123 121 119 116 113 110 107 105 103 102 101 100 99 98 98 99 99 99 100 101 102 103 104 105 107 108 110 111 113 114 116 117 119 120 121 122 123
127 129 130 132 133 134 135 136 135 134 132 131 131 130 131 133 135 136 135 136 139 140 137 133 132 130 127 127 128 129 130 129 129 129 130 131 131 132 132 132 132 131 130 129 128 127 126 124 122 119 116 113 110 108 106 103 102 100 99 98 97 96 96 96 96 96 97 97 98 98 99 100 101 103 104 106 107 109 110 112 113 115 116 118 119 120
132 134 135 136 137 138 139 139 138 136 136 135 134 133 134 135 136 136 138 140 141 139 136 135 134 131 129 130 132 132 131 131 132 133 133 132 132 132 132 132 131 130 128 127 126 124 122 119 116 112 109 107 106 104 102 101 99 98 97 97 96 95 94 94 94 94 94 94 94 95 95 96 98 99 101 102 104 105 106 107 109 110 112 113 115 116
136 138 139 140 142 141 141 140 140 139 139 138 136 135 135 137 139 141 141 140 138 136 136 136 135 133 132 133 134 134 134 135 135 134 133 133 132 132 132 131 129 127 126 124 121 118 115 112 109 107 105 103 102 101 99 98 97 96 95 95 94 93 93 93 93 92 92 92 92 93 93 94 95 96 97 99 100 101 102 104 105 106 108 109 110 111
139 141 142 145 145 144 142 142 142 143 144 141 137 136 139 142 144 144 142 139 137 137 137 136 135 135 135 135 135 136 136 136 134 132 132 131 131 131 130 128 125 122 119 116 113 111 109 107 105 103 102 101 100 99 98 97 96 95 94 93 93 93 93 93 93 92 92 92 92 92 92 93 93 94 95 96 97 98 99 100 101 103 104 105 107 107
143 144 146 147 147 146 145 145 146 148 146 142 140 143 145 146 145 143 142 139 138 138 138 137 137 136 136 136 136 135 133 131 129 129 129 129 129 128 125 121 117 114 111 109 107 106 105 104 102 101 100 99 98 98 98 97 96 95 94 93 93 93 93 93 93 93 93 93 93 93 93 93 93 93 93 94 94 95 96 97 98 99 100 101 101 103
147 148 149 148 149 148 148 149 150 150 148 145 147 149 147 146 145 145 143 139 137 138 138 138 138 137 136 136 133 130 128 126 126 125 125 125 124 121 116 111 109 107 106 105 104 103 102 101 100 99 98 98 98 98 97 97 96 95 94 94 94 93 93 93 92 92 92 92 92 92 92 92 92 92 93 93 93 93 94 94 95 95 96 96 97 98
149 149 150 150 151 151 151 153 154 153 152 152 152 150 148 148 147 145 142 138 137 136 136 136 137 136 134 131 128 126 125 124 122 120 119 118 116 111 106 104 104 104 103 102 102 101 101 100 99 98 98 98 97 97 96 96 95 95 94 93 93 92 92 91 91 91 91 91 91 91 91 92 92 92 92 92 92 93 93 93 93 93 93 93 94 94
150 150 151 151 152 153 154 157 159 159 159 157 153 150 149 148 145 143 141 137 133 132 132 134 134 132 129 127 125 124 121 118 115 112 111 110 107 104 101 101 101 101 101 101 101 101 101 100 99 99 98 97 97 96 96 95 94 94 93 92 92 91 90 90 89 89 90 90 90 90 91 91 91 91 91 92 92 92 92 93 93 92 92 91 92 93
150 151 152 153 155 158 160 162 164 164 161 156 151 149 148 146 143 142 138 132 127 128 130 130 128 126 124 123 121 117 114 110 106 105 105 105 102 100 99 100 100 100 101 101 101 101 101 100 99 98 97 97 96 96 95 94 93 93 92 92 92 91 90 90 89 89 88 88 89 89 89 90 90 90 90 91 91 91 92 92 92 91 91 91 91 91
151 153 155 158 161 163 165 166 167 165 159 152 148 146 144 142 139 137 133 127 124 127 128 125 122 121 119 116 112 109 106 103 100 100 102 102 100 99 99 100 100 100 101 101 101 101 101 100 99 97 97 96 95 94 94 93 93 92 92 92 91 91 90 89 89 88 88 87 88 88 88 88 88 89 89 89 90 90 91 91 91 90 90 90 90 90
156 158 161 164 165 166 168 168 166 160 151 145 143 142 139 135 132 131 129 126 125 124 122 119 117 114 111 108 106 103 101 99 98 98 100 100 99 99 99 99 99 100 101 101 100 100 99 98 97 96 95 95 94 94 94 93 92 92 91 91 90 90 89 89 88 88 88 87 87 87 87 87 87 87 88 88 89 89 90 90 90 90 90 90 90 89
161 164 166 167 168 168 167 164 159 150 142 138 138 136 132 130 129 128 128 126 123 119 115 113 111 108 106 104 103 100 99 98 98 98 99 100 99 98 98 99 99 100 100 100 99 98 97 96 96 95 95 94 94 94 94 93 92 91 91 90 89 89 89 89 88 88 87 87 86 86 86 86 86 86 86 87 87 88 88 88 88 88 89 89 89 90
165 167 169 169 167 163 159 155 148 140 134 132 134 132 129 128 128 126 124 122 118 113 110 108 105 104 103 102 101 99 99 98 98 98 99 99 99 98 98 99 99 99 99 98 98 97 96 95 95 94 94 94 94 94 94 93 92 91 90 90 89 88 88 87 87 86 86 85 85 85 84 84 84 84 85 85 85 85 86 86 86 86 86 87 87 89
169 169 167 164 159 154 149 144 138 132 129 129 131 130 128 126 124 121 119 116 112 109 108 105 103 102 102 101 100 100 99 98 98 98 98 98 98 97 98 98 98 97 97 97 97 96 96 95 94 94 94 94 93 93 93 92 91 90 89 89 88 87 86 86 86 85 85 85 84 84 83 83 83 84 83 83 83 83 84 84 84 83 84 85 86 86
169 164 158 152 147 143 139 134 130 129 128 127 127 126 124 121 118 115 114 112 109 108 106 104 102 101 101 100 100 99 98 97 97 97 97 97 97 97 96 96 96 96 96 96 95 95 94 94 93 93 93 92 92 92 91 91 90 89 87 87 86 85 85 85 85 85 84 84 83 83 83 83 83 83 83 83 82 82 83 83 82 82 83 84 84 83
158 152 146 141 137 134 131 128 127 127 126 123 122 120 119 117 114 112 111 109 108 107 105 103 101 100 100 100 99 99 98 97 97 96 95 95 96 96 96 95 95 96 96 94 93 92 92 92 91 91 91 91 91 91 90 89 88 86 85 85 84 84 84 84 84 84 84 83 82 82 82 82 82 82 82 82 81 81 81 81 81 81 83 83 82 81
145 141 136 132 130 128 126 124 124 123 120 119 118 117 116 114 112 111 110 108 107 107 105 103 101 100 99 98 98 97 96 95 95 94 94 94 94 95 95 95 95 95 94 92 90 89 89 89 89 89 89 89 89 88 88 86 85 84 83 83 83 83 83 83 83 83 83 82 81 80 80 79 80 79 79 79 79 78 78 78 78 79 80 80 79 78
136 133 130 127 125 123 121 119 119 118 117 117 116 115 113 112 111 111 109 107 107 106 105 102 100 99 97 96 96 95 94 93 92 92 92 92 93 94 94 94 93 93 92 90 88 87 87 86 86 86 86 86 86 85 84 83 82 82 82 82 82 82 82 82 82 81 81 80 79 78 78 78 77 77 77 76 76 75 75 75 75 76 76 76 75 75
130 127 125 122 120 118 116 115 116 117 116 115 114 113 113 112 111 109 107 107 107 106 104 102 100 98 96 94 94 93 91 90 90 91 91 92 92 92 91 91 91 91 90 89 87 86 85 84 84 84 84 84 83 82 82 81 81 81 81 81 81 80 80 80 79 79 79 78 78 77 77 77 76 76 75 75 74 74 74 73 74 73 73 72 71 71
124 121 118 116 114 114 114 115 117 118 115 112 112 112 112 110 109 107 106 106 106 104 103 101 99 97 95 94 93 92 90 89 90 90 91 91 91 90 89 88 88 88 88 87 86 85 84 83 83 82 82 82 81 81 81 81 80 80 79 79 78 78 77 77 77 77 77 77 76 75 75 75 75 74 74 74 73 73 73 73 73 72 71 71 70 69
118 115 113 112 111 111 112 116 118 118 115 112 112 111 109 108 106 105 104 105 104 103 102 101 99 97 95 94 94 93 91 90 89 90 90 90 90 89 88 87 87 87 86 85 84 83 83 82 81 81 81 80 80 80 80 80 79 78 77 77 77 76 76 76 76 76 76 76 75 75 74 74 74 73 73 72 72 72 72 73 73 71 70 70 70 68
113 111 110 110 109 109 111 114 117 117 115 113 111 108 106 105 104 103 103 102 102 102 101 100 99 97 96 96 95 94 92 90 89 89 89 89 89 88 87 87 86 86 85 84 83 83 82 82 81 81 80 79 79 79 79 78 77 76 76 76 75 75 75 74 74 75 75 75 75 74 74 73 73 72 72 71 71 70 70 72 73 72 70 68 67 68
Wind_Direction
275 275 276 276 276 278 279 280 280 279 279 279 279 280 280 281 281 281 282 283 283 283 284 284 285 286 285 284 283 283 282 281 281 282 282 282 281 281 281 281 281 281 280 280 280 279 278 278 277 276 275 274 273 272 271 271 271 270 269 269 269 269 269 268 268 268 267 266 266 267 267 268 269 269 269 269 269 269 270 271 271 271 270 270 268 267
276 278 277 276 277 279 280 280 280 279 278 278 278 279 279 278 278 278 279 280 280 281 283 285 286 287 286 285 283 282 282 281 281 281 281 280 279 279 279 279 279 278 278 278 278 278 278 277 278 277 277 276 275 273 272 271 271 270 269 269 268 267 267 268 267 267 267 266 266 265 266 266 267 268 268 267 267 267 268 270 271 271 272 271 270 269
279 280 278 278 280 280 281 281 281 279 278 279 279 279 278 277 276 277 277 278 279 281 282 285 288 292 292 289 287 285 283 282 281 281 280 279 279 279 278 278 277 277 276 276 276 276 276 276 275 276 276 276 275 275 274 273 272 271 270 269 268 267 266 266 266 266 266 265 265 265 264 265 265 266 266 266 266 266 266 267 268 270 271 272 272 271
281 279 278 280 282 282 283 282 280 279 279 280 279 278 277 277 277 277 278 279 281 283 284 286 289 294 294 292 290 288 285 284 282 281 279 278 278 278 278 277 277 276 276 276 275 275 274 274 274 274 274 274 274 274 274 273 272 272 271 270 269 268 266 265 265 265 265 264 264 264 264 263 263 263 264 264 265 265 265 265 266 266 267 269 270 271
282 278 278 281 282 282 282 281 280 280 281 280 278 277 277 278 279 279 280 281 283 285 286 287 288 292 293 292 291 289 287 286 285 282 280 279 278 277 276 276 276 276 276 276 276 275 275 275 274 274 273 273 273 273 272 272 271 271 270 270 269 268 267 266 265 264 263 263 263 263 263 262 262 262 262 262 262 263 264 264 264 264 264 265 267 268
283 280 280 281 280 280 280 280 280 281 283 281 278 278 278 279 280 280 281 282 283 285 287 287 287 287 290 292 291 289 288 288 287 284 282 280 278 277 276 275 275 274 274 274 274 275 275 275 274 274 274 273 273 273 273 272 271 270 269 269 269 268 267 267 266 264 263 262 262 261 261 261 261 261 261 260 260 260 261 262 263 263 262 262 262 264
285 284 284 282 280 279 278 279 280 282 283 282 280 280 281 281 283 283 284 284 285 287 288 290 289 287 288 291 291 289 289 290 288 286 284 281 280 278 277 277 276 275 275 274 274 273 272 272 272 273 273 273 274 274 274 273 272 271 270 269 268 267 267 266 265 264 263 262 261 260 260 259 259 259 260 260 259 259 259 260 260 261 261 260 260 260
286 287 288 286 284 283 281 280 282 283 284 283 282 283 285 286 286 287 288 288 289 289 290 292 291 287 289 293 292 292 292 290 289 288 286 284 282 280 279 277 277 276 276 275 275 274 273 272 272 272 272 273 274 274 274 274 273 272 270 269 268 267 266 266 265 265 263 262 261 260 259 259 259 259 259 259 259 259 259 259 259 259 259 259 259 258
288 290 290 290 290 289 287 286 285 285 285 285 285 287 288 289 289 290 290 291 291 291 293 293 290 288 289 292 292 292 292 291 289 288 287 286 285 284 282 281 280 279 278 277 276 276 276 276 274 274 274 274 275 275 275 274 274 272 271 269 268 267 266 265 264 264 264 263 261 260 259 258 258 258 259 258 258 258 258 258 258 258 258 258 258 258
290 291 290 291 291 291 292 292 291 290 290 289 289 290 291 291 292 292 293 293 292 293 295 292 290 290 292 293 293 291 291 290 288 287 286 285 286 286 286 285 285 285 284 283 282 281 280 280 278 277 276 276 275 275 275 275 274 273 272 270 268 267 266 265 264 263 262 261 261 260 259 258 257 257 257 257 258 257 257 257 257 257 257 257 257 257
290 290 290 290 291 292 293 293 294 294 293 292 292 293 293 293 294 294 294 294 293 295 295 291 291 293 294 295 294 291 291 290 288 287 286 285 284 284 284 284 285 285 285 285 285 285 284 283 281 280 279 277 276 274 274 273 273 272 271 269 268 267 266 265 264 263 262 260 260 259 259 258 257 257 256 256 256 256 256 256 256 256 256 256 256 256
289 288 288 289 290 291 292 293 294 294 294 295 296 296 296 297 297 296 296 296 295 296 295 293 293 294 295 296 293 291 291 290 289 289 288 286 285 285 285 285 284 284 284 284 284 284 284 283 283 282 282 281 279 277 275 273 271 270 268 267 266 266 265 264 263 262 262 260 259 258 258 257 257 257 256 256 256 255 255 255 255 255 255 255 255 255
287 287 288 288 289 289 290 291 292 294 296 297 298 299 299 300 300 299 299 297 297 298 297 295 294 294 295 295 293 292 291 290 290 290 289 288 287 287 287 287 287 288 288 287 286 285 284 284 284 283 283 282 282 281 279 277 275 271 268 266 264 263 263 263 262 262 261 260 259 258 257 257 256 255 255 255 255 255 255 254 254 254 254 254 254 254
287 287 288 289 289 289 290 291 293 295 296 297 299 300 302 303 302 301 300 299 299 299 298 296 296 295 295 294 293 293 292 292 292 292 292 291 291 291 291 292 292 292 291 290 289 288 288 287 286 285 284 284 283 283 282 281 279 276 272 268 265 263 261 260 260 260 260 260 259 258 257 256 255 255 254 254 254 254 254 254 254 253 253 253 253 253
287 288 288 289 289 291 292 293 294 295 296 298 300 301 303 303 303 302 302 301 301 299 298 298 297 297 297 296 295 296 295 295 295 295 295 295 295 296 295 295 294 293 292 291 290 289 288 288 287 287 286 286 285 284 284 282 280 278 276 273 268 265 262 260 259 258 258 259 259 258 257 256 256 255 254 253 253 252 252 253 253 253 252 252 252 252
288 289 289 290 291 292 293 294 295 295 297 299 301 302 303 303 303 304 303 302 301 300 300 300 299 299 299 299 300 300 299 298 298 297 297 297 297 296 295 294 293 292 291 290 290 289 289 288 288 288 288 287 287 286 285 284 282 279 277 275 272 268 264 262 260 258 257 257 257 257 257 257 256 255 254 254 253 252 252 252 252 252 252 252 252 252
289 290 290 290 291 292 293 294 295 297 298 300 302 303 303 303 304 304 303 302 301 301 301 302 301 301 302 302 303 302 300 299 298 297 297 295 294 293 292 291 290 290 289 289 289 289 289 289 289 289 289 288 288 287 286 285 284 282 279 277 274 271 268 264 262 260 258 257 257 256 256 256 256 256 255 254 254 253 252 252 251 251 252 252 252 252
289 290 290 291 292 293 294 295 297 299 300 301 301 303 303 303 303 302 301 301 301 302 303 303 303 303 304 304 304 301 299 298 296 295 293 292 292 291 290 290 289 289 289 290 290 291 291 291 291 290 290 290 289 289 288 287 286 284 282 280 277 274 272 268 265 262 260 259 258 257 256 256 256 255 255 255 254 254 253 252 252 252 251 251 251 252
289 289 291 292 293 294 295 297 298 299 300 300 302 302 302 302 301 301 301 301 302 303 303 303 303 303 303 303 301 299 297 295 294 292 292 291 291 290 290 290 290 291 291 292 292 292 292 292 292 292 291 291 290 290 290 289 288 286 285 283 280 277 274 272 269 266 263 261 259 258 257 257 256 256 255 255 254 254 254 253 253 252 252 252 252 252
289 290 292 294 294 295 297 299 299 299 300 301 302 301 301 301 301 300 300 301 302 302 301 301 301 301 301 300 299 297 295 294 293 292 292 291 291 291 292 292 292 293 293 293 294 294 293 293 292 292 292 292 291 291 290 290 289 287 286 284 282 279 276 273 271 269 267 265 262 260 259 258 257 257 256 255 255 254 254 254 253 253 253 253 252 252
290 291 293 294 296 298 299 299 299 300 300 300 300 300 300 300 299 299 299 300 300 299 300 300 301 301 302 300 298 296 295 294 293 292 292 292 292 292 293 293 294 294 294 294 294 293 293 293 292 292 292 292 292 291 291 290 289 288 286 284 282 280 278 275 272 270 268 267 265 264 262 261 259 258 257 256 256 255 255 254 254 254 254 253 253 253
291 292 294 296 298 299 299 299 299 299 298 298 298 299 299 299 298 298 298 298 299 299 300 302 302 303 303 301 298 296 295 294 293 293 293 293 293 293 294 294 294 294 294 294 293 293 293 293 292 292 292 292 292 291 290 289 288 287 286 284 283 281 279 276 274 271 269 267 266 265 265 264 262 261 259 258 257 256 256 255 255 254 254 254 254 254
293 295 296 298 299 298 298 298 298 297 297 297 297 298 298 298 298 298 298 299 300 300 302 302 302 303 303 301 298 297 296 295 294 295 295 295 295 295 295 294 294 294 294 294 294 293 293 293 292 292 292 292 291 290 290 289 288 287 286 284 283 282 280 277 275 273 271 269 268 266 266 265 264 264 263 261 260 259 258 257 256 255 255 255 255 255
295 296 297 298 298 298 298 298 297 296 296 296 297 297 297 298 298 298 298 300 300 302 303 302 302 303 302 300 298 297 296 296 296 296 296 296 295 295 295 295 294 295 295 294 294 293 293 293 292 292 292 291 291 290 289 288 287 286 285 284 283 281 280 278 276 274 273 271 270 268 267 266 265 265 264 264 263 262 261 259 258 257 256 256 256 256
294 295 296 297 297 297 297 296 296 295 295 296 296 297 297 297 297 298 299 300 301 303 302 301 301 302 300 298 298 298 297 297 297 297 296 295 295 295 295 295 295 295 295 294 294 293 293 293 292 292 292 291 291 290 289 288 287 286 284 283 281 280 278 277 276 274 273 272 271 270 269 268 267 266 265 265 265 264 264 263 261 260 259 258 257 257
293 294 295 296 295 295 295 294 294 294 295 296 296 296 296 297 298 299 300 301 302 302 301 300 301 300 298 298 299 299 298 298 296 295 295 295 295 296 296 295 295 295 294 294 293 293 293 292 292 292 292 291 290 290 289 288 287 285 284 282 280 279 277 276 275 274 273 273 272 271 270 269 268 267 267 266 266 265 265 265 264 263 263 262 261 260
291 292 293 294 294 294 294 293 293 294 295 295 295 296 297 298 299 300 301 302 302 300 299 300 300 298 298 300 300 299 297 296 295 295 295 296 296 296 295 295 295 294 294 294 293 293 293 292 292 292 291 290 290 289 288 287 286 285 284 282 281 279 278 277 276 275 274 273 272 272 271 270 270 269 268 268 267 266 266 266 265 265 265 264 263 263
290 291 292 292 292 293 293 293 293 294 295 295 295 296 298 299 300 301 302 301 300 299 299 300 299 299 300 300 299 297 296 295 295 296 297 297 296 295 295 295 295 294 294 294 293 293 293 292 292 291 291 290 289 289 288 287 286 285 284 283 282 280 279 279 277 276 275 274 273 272 271 270 270 269 269 268 268 267 267 267 267 266 266 265 265 264
289 290 292 292 292 293 293 293 294 294 294 295 296 298 299 300 301 301 300 299 298 298 299 300 299 299 299 299 297 295 295 296 296 297 296 296 296 295 295 295 295 294 294 294 294 293 293 292 292 291 291 290 289 288 287 287 286 285 284 283 282 281 280 279 278 277 276 275 274 273 272 271 271 270 269 269 268 268 267 267 267 267 266 266 266 265
290 291 292 292 292 292 293 293 294 294 294 296 297 299 301 302 300 298 298 298 299 299 300 300 298 297 298 297 295 295 295 296 296 296 295 295 295 295 295 294 294 294 294 294 293 293 292 292 291 291 290 289 289 288 287 287 286 285 284 283 282 281 280 279 278 277 276 275 275 274 273 273 272 271 271 270 269 269 268 267 267 267 266 266 266 266
291 291 292 292 292 292 292 293 293 294 295 296 299 302 302 299 297 297 298 299 299 299 299 298 297 297 298 296 295 295 296 295 295 295 295 295 295 294 294 294 294 294 294 293 293 292 292 291 290 289 289 288 288 287 287 286 286 285 284 283 283 282 281 280 279 278 277 277 276 275 274 273 273 272 271 270 270 269 269 269 268 268 267 267 266 266
290 290 291 291 291 291 292 292 293 294 295 298 301 302 299 296 296 298 299 299 298 297 297 296 297 297 296 295 295 295 295 294 294 295 295 295 294 294 294 294 294 294 293 292 292 291 290 290 289 289 289 288 288 288 287 286 286 285 285 284 284 283 283 282 281 280 279 278 277 276 274 273 272 271 270 270 269 269 269 268 268 268 268 268 267 267
289 289 290 290 290 291 292 293 294 295 296 300 302 300 296 296 299 299 298 297 296 296 296 296 296 295 295 294 294 293 293 294 294 294 294 294 294 294 294 294 293 293 292 291 291 290 290 289 289 289 289 289 289 288 288 287 287 287 286 286 286 285 285 284 284 283 282 281 279 278 277 275 274 273 272 271 270 269 269 268 268 267 267 267 267 267
288 288 289 290 291 292 293 294 294 295 298 301 300 298 297 298 298 296 295 296 296 296 296 295 294 294 294 293 292 292 293 293 294 294 294 293 293 293 293 293 293 292 291 291 290 290 289 290 290 290 290 289 289 289 288 288 289 288 288 288 287 287 286 286 285 284 283 282 281 280 279 278 277 276 275 274 273 272 271 270 269 268 267 267 267 266
288 289 290 291 292 293 294 294 294 296 299 299 298 298 297 296 295 295 295 296 295 295 294 294 294 293 292 291 292 292 293 293 293 293 294 293 293 293 293 292 292 291 290 290 290 289 289 289 289 289 289 289 289 289 289 289 289 289 289 288 288 287 286 285 284 283 283 282 281 281 280 279 278 277 277 276 275 274 273 272 271 271 270 269 269 268
289 290 291 291 292 292 293 294 295 296 297 298 298 297 295 294 294 295 295 294 294 293 293 293 292 291 291 291 292 293 293 293 293 294 294 293 292 291 292 291 291 290 290 290 290 289 289 289 289 289 289 289 289 290 290 290 289 289 288 288 287 286 285 284 284 283 283 282 282 281 280 280 279 279 278 277 277 276 275 274 273 273 272 272 271 270
289 289 290 290 291 292 293 294 295 296 297 297 297 295 294 294 294 293 293 293 293 293 292 291 290 290 291 292 292 292 293 293 293 293 292 291 290 291 291 291 290 290 290 289 289 289 289 289 289 290 290 290 290 290 290 289 289 288 287 286 286 285 284 284 284 283 283 282 282 281 281 280 280 279 279 278 277 277 276 276 275 274 274 273 273 272
288 289 289 290 291 292 293 294 294 295 296 297 295 294 293 293 293 292 292 292 292 292 290 289 289 290 291 291 292 292 292 292 292 292 290 290 291 291 291 290 289 289 289 289 290 290 290 290 290 290 291 291 291 290 290 289 288 288 287 286 286 286 285 285 284 284 283 283 282 282 281 281 280 280 279 279 278 278 277 277 276 275 275 274 273 273
288 289 289 290 291 292 293 293 294 295 295 295 293 292 292 292 292 291 291 291 291 290 288 289 290 291 291 292 292 291 291 291 291 291 291 291 291 291 290 290 290 290 290 290 290 290 290 290 291 291 291 291 290 290 289 288 288 288 287 287 287 287 287 286 286 285 284 283 283 282 281 281 280 280 280 279 279 278 278 277 277 276 276 275 274 274
288 288 289 290 291 291 292 293 293 293 293 293 293 292 291 291 290 290 291 291 290 288 289 290 291 291 292 291 291 291 291 291 291 291 290 290 290 290 290 291 291 290 290 290 290 290 291 291 291 291 290 290 290 289 289 288 288 288 288 288 288 288 288 287 287 286 285 284 283 282 282 281 281 280 279 279 279 278 278 278 277 277 276 276 275 275
287 288 288 289 291 291 292 292 291 292 293 293 292 291 290 290 290 290 290 289 289 289 291 291 291 291 291 291 291 292 292 292 291 291 290 290 291 291 291 291 290 290 290 290 291 291 291 291 291 290 290 290 290 289 289 289 289 289 289 289 289 288 288 287 286 285 285 284 283 282 282 281 280 280 279 278 278 278 278 277 277 277 277 276 276 275
287 287 288 290 290 290 290 290 291 292 292 291 290 290 290 290 289 289 289 289 290 291 291 291 291 291 291 291 292 292 292 291 291 291 291 291 291 291 291 290 290 290 290 290 290 290 290 290 290 291 291 291 291 291 290 290 290 290 290 289 289 288 287 287 286 285 284 284 283 282 282 281 280 280 279 278 278 278 277 277 277 277 276 276 276 275
287 287 288 289 289 289 289 290 290 291 290 290 289 289 289 288 288 289 289 290 290 290 290 290 290 291 291 292 291 291 291 291 291 290 290 291 291 291 290 290 290 290 290 290 290 290 291 291 291 291 291 291 291 291 291 290 290 290 290 289 289 288 287 287 286 285 285 284 284 283 283 282 281 280 280 279 279 278 278 278 277 277 277 276 275 275
287 287 288 288 288 288 288 289 289 290 289 288 288 288 288 288 288 289 289 289 289 289 289 290 290 291 291 291 291 291 291 290 290 290 291 291 290 290 289 289 289 289 289 289 290 290 291 291 291 291 291 291 290 290 289 289 289 289 289 289 288 287 287 286 286 285 285 285 284 284 283 282 282 281 281 280 280 279 279 278 278 278 277 276 276 276
286 287 287 287 287 287 288 288 289 288 288 288 287 287 287 287 288 288 288 288 289 289 289 290 290 291 290 290 290 290 290 290 291 291 290 290 289 288 288 288 288 288 288 288 289 290 290 291 291 291 290 290 289 289 289 289 289 289 289 288 288 287 287 287 286 286 285 285 284 284 283 283 282 282 281 281 280 280 279 279 278 277 276 276 276 277
285 286 286 286 287 287 288 288 288 287 287 287 287 286 287 287 288 288 288 288 289 289 289 290 290 290 290 290 290 290 290 290 290 289 288 288 288 288 288 288 288 288 288 289 290 290 290 290 290 290 289 289 289 288 289 289 289 289 288 288 288 288 287 287 287 286 286 285 285 284 284 283 283 282 282 281 281 280 280 279 278 277 276 276 277 276
285 285 285 286 286 287 287 287 287 287 286 286 286 286 287 287 287 288 288 289 289 290 290 290 290 290 289 289 290 289 289 288 288 288 288 288 288 287 287 288 289 289 290 290 290 290 290 289 289 289 288 288 288 288 288 289 289 289 288 288 288 288 288 287 287 287 286 286 286 285 285 284 284 283 283 282 282 281 281 280 279 278 277 277 277 276
284 285 285 286 286 286 287 287 286 285 285 285 286 286 287 287 287 288 289 290 290 290 290 290 290 290 290 290 289 288 287 288 288 288 288 288 287 287 288 289 290 290 290 291 290 290 290 290 289 289 288 288 288 288 289 289 289 289 289 289 288 288 288 287 287 287 286 286 286 286 286 285 285 284 284 284 283 283 282 281 280 280 279 279 278 277
284 284 285 286 286 287 287 286 285 284 285 285 286 286 286 287 288 290 290 290 290 291 291 291 291 291 290 289 289 288 289 289 289 289 288 288 289 289 290 290 290 290 290 290 291 291 291 290 290 289 289 289 289 289 289 289 289 289 289 289 288 288 287 287 287 287 287 287 287 286 286 285 285 285 284 284 284 284 283 282 282 281 281 280 279 278
283 284 285 286 286 286 286 285 285 285 285 285 285 286 287 288 289 290 290 290 291 291 291 291 291 291 291 291 290 290 290 290 289 289 290 290 290 291 291 291 291 290 290 291 291 291 291 290 289 289 289 289 289 290 290 290 290 290 289 289 289 288 288 288 288 288 288 287 287 286 286 285 285 285 284 284 284 284 283 283 282 282 281 281 280 280
283 284 285 285 286 285 285 285 284 284 284 284 285 287 288 288 289 289 290 290 290 291 291 291 291 291 291 291 291 290 290 290 290 291 291 291 291 291 291 291 291 291 291 291 292 291 291 290 290 290 290 290 290 291 291 291 291 291 290 290 289 289 289 288 288 288 287 287 286 286 285 285 285 285 285 284 284 284 283 283 283 282 281 280 280 280
Height
10754 10755 10754 10748 10747 10750 10751 10751 10751 10751 10751 10751 10750 10751 10751 10750 10748 10746 10746 10746 10746 10748 10747 10745 10746 10745 10742 10737 10735 10733 10730 10728 10728 10726 10724 10723 10721 10719 10718 10717 10716 10715 10714 10713 10712 10712 10712 10712 10711 10710 10710 10710 10711 10710 10710 10710 10710 10710 10710 10709 10708 10707 10707 10707 10706 10705 10704 10703 10703 10702 10701 10701 10701 10701 10700 10700 10699 10698 10697 10695 10695 10694 10694 10694 10694 10694
10750 10751 10746 10741 10743 10746 10745 10745 10745 10744 10744 10744 10744 10745 10745 10743 10743 10741 10741 10740 10740 10743 10742 10740 10741 10740 10736 10732 10729 10728 10724 10723 10723 10722 10719 10716 10714 10713 10712 10710 10709 10708 10706 10705 10704 10703 10704 10704 10703 10702 10702 10702 10701 10701 10701 10701 10701 10701 10701 10701 10700 10699 10698 10698 10697 10697 10696 10695 10695 10694 10693 10693 10693 10693 10692 10692 10692 10691 10690 10689 10687 10687 10686 10687 10687 10686
10746 10745 10738 10737 10740 10740 10739 10739 10738 10738 10737 10738 10738 10739 10738 10735 10737 10737 10735 10734 10735 10736 10736 10735 10736 10735 10730 10725 10723 10721 10718 10716 10717 10717 10713 10710 10708 10707 10705 10704 10702 10700 10698 10697 10696 10695 10695 10695 10695 10694 10694 10693 10693 10693 10692 10692 10692 10692 10692 10692 10691 10691 10690 10689 10689 10688 10687 10687 10686 10686 10685 10685 10684 10684 10684 10684 10683 10683 10682 10681 10680 10679 10678 10678 10678 10678
10741 10736 10731 10733 10735 10734 10734 10733 10731 10731 10731 10732 10732 10731 10731 10729 10730 10731 10729 10729 10730 10729 10729 10729 10731 10730 10723 10719 10718 10715 10712 10710 10711 10710 10706 10703 10701 10700 10698 10696 10694 10692 10690 10689 10689 10688 10687 10686 10686 10686 10686 10685 10685 10685 10684 10683 10683 10682 10682 10682 10681 10681 10681 10681 10680 10679 10679 10678 10678 10677 10677 10676 10675 10675 10675 10674 10674 10673 10673 10673 10672 10671 10670 10669 10669 10669
10733 10727 10726 10729 10729 10728 10729 10726 10724 10725 10726 10726 10724 10723 10724 10722 10723 10724 10723 10723 10724 10723 10723 10723 10725 10726 10718 10712 10712 10709 10706 10705 10704 10701 10698 10697 10695 10692 10690 10687 10685 10684 10682 10681 10680 10679 10678 10678 10677 10677 10677 10676 10676 10675 10675 10674 10674 10673 10673 10672 10672 10671 10671 10671 10671 10670 10670 10669 10668 10668 10667 10666 10666 10665 10665 10665 10664 10664 10663 10663 10662 10662 10662 10661 10660 10660
10726 10720 10721 10724 10722 10723 10723 10720 10717 10719 10721 10718 10715 10716 10717 10716 10715 10716 10716 10717 10717 10717 10716 10715 10717 10720 10715 10708 10704 10702 10701 10699 10695 10693 10690 10689 10687 10684 10682 10680 10677 10676 10674 10673 10672 10671 10670 10668 10667 10667 10667 10667 10667 10666 10665 10664 10664 10664 10663 10663 10662 10661 10661 10660 10660 10660 10660 10659 10659 10658 10657 10656 10656 10655 10655 10655 10654 10654 10653 10652 10652 10651 10651 10651 10651 10651
10719 10715 10717 10717 10715 10716 10716 10713 10711 10712 10714 10710 10706 10707 10709 10708 10707 10707 10707 10708 10710 10710 10708 10707 10705 10709 10712 10705 10696 10695 10697 10692 10686 10683 10681 10680 10678 10674 10672 10671 10669 10667 10665 10664 10664 10662 10661 10660 10658 10656 10656 10657 10657 10656 10655 10654 10654 10653 10653 10652 10652 10651 10650 10649 10649 10649 10648 10648 10648 10647 10647 10646 10645 10644 10644 10644 10643 10643 10643 10642 10641 10641 10640 10640 10640 10640
10714 10712 10711 10709 10708 10708 10707 10707 10706 10705 10706 10703 10699 10699 10700 10699 10699 10699 10698 10699 10701 10701 10702 10700 10690 10694 10707 10703 10690 10688 10690 10685 10679 10674 10671 10669 10668 10665 10663 10661 10659 10657 10655 10654 10653 10652 10651 10650 10649 10647 10646 10647 10647 10646 10645 10643 10643 10642 10641 10641 10640 10640 10639 10638 10637 10637 10636 10636 10636 10636 10635 10634 10634 10633 10633 10633 10632 10632 10631 10631 10630 10630 10629 10629 10629 10629
10708 10707 10704 10702 10701 10699 10699 10699 10699 10698 10697 10696 10692 10691 10691 10690 10690 10690 10689 10690 10690 10692 10697 10690 10675 10680 10699 10699 10686 10681 10680 10676 10672 10666 10661 10659 10657 10655 10653 10652 10650 10647 10645 10643 10642 10641 10640 10639 10639 10638 10636 10636 10635 10635 10634 10633 10631 10630 10629 10629 10628 10627 10626 10626 10625 10624 10623 10623 10623 10623 10623 10622 10622 10621 10621 10621 10620 10620 10619 10619 10618 10618 10618 10617 10617 10617
10702 10701 10698 10696 10693 10691 10691 10691 10690 10689 10689 10688 10684 10683 10682 10681 10682 10680 10681 10681 10678 10685 10690 10679 10664 10668 10686 10692 10681 10672 10669 10667 10663 10657 10652 10650 10647 10644 10642 10641 10640 10638 10636 10633 10631 10631 10630 10629 10628 10627 10626 10624 10623 10622 10621 10621 10620 10618 10617 10616 10615 10614 10613 10613 10612 10611 10610 10609 10609 10609 10609 10609 10608 10608 10608 10607 10607 10607 10607 10606 10605 10605 10605 10605 10605 10605
10694 10694 10692 10689 10687 10685 10683 10681 10681 10680 10679 10678 10676 10675 10673 10672 10673 10671 10672 10671 10668 10676 10679 10668 10659 10660 10671 10681 10673 10662 10659 10655 10650 10646 10643 10639 10636 10633 10630 10629 10628 10627 10625 10623 10620 10619 10618 10617 10615 10614 10612 10611 10610 10609 10608 10607 10607 10608 10606 10603 10601 10600 10599 10598 10597 10596 10596 10595 10595 10595 10595 10595 10594 10594 10594 10593 10593 10592 10592 10592 10592 10592 10591 10591 10592 10592
10687 10686 10684 10682 10680 10678 10675 10673 10672 10670 10669 10668 10666 10665 10662 10661 10662 10660 10662 10660 10657 10666 10667 10658 10654 10653 10659 10667 10660 10652 10649 10643 10639 10636 10632 10628 10623 10620 10617 10615 10614 10613 10612 10611 10609 10606 10604 10603 10601 10599 10597 10595 10594 10594 10594 10593 10593 10594 10594 10591 10588 10585 10584 10583 10582 10581 10581 10580 10580 10580 10580 10580 10580 10579 10579 10578 10577 10577 10577 10577 10577 10577 10577 10577 10577 10578
10679 10677 10675 10674 10672 10669 10667 10665 10663 10661 10660 10659 10656 10654 10651 10650 10649 10648 10650 10647 10647 10655 10654 10648 10645 10645 10651 10653 10646 10641 10637 10632 10628 10623 10619 10615 10611 10608 10604 10601 10599 10598 10597 10597 10596 10593 10590 10588 10586 10584 10582 10581 10579 10578 10578 10578 10577 10577 10577 10577 10575 10572 10569 10568 10567 10565 10564 10564 10565 10565 10565 10565 10564 10564 10563 10563 10562 10561 10561 10560 10560 10561 10561 10562 10562 10563
10671 10668 10666 10665 10663 10660 10658 10656 10653 10651 10650 10648 10646 10643 10640 10638 10634 10634 10637 10635 10637 10642 10640 10636 10634 10635 10641 10641 10634 10630 10626 10620 10615 10609 10605 10601 10598 10595 10591 10587 10585 10583 10582 10582 10581 10580 10577 10574 10571 10569 10567 10566 10564 10563 10562 10562 10561 10560 10558 10559 10559 10557 10554 10552 10550 10549 10548 10548 10548 10548 10548 10547 10547 10547 10546 10546 10545 10545 10544 10544 10544 10544 10544 10545 10546 10546
10663 10662 10658 10654 10653 10651 10649 10647 10644 10642 10639 10637 10635 10632 10631 10627 10619 10619 10623 10623 10624 10626 10627 10626 10622 10622 10627 10627 10622 10619 10613 10607 10601 10595 10591 10587 10584 10581 10578 10576 10572 10569 10568 10567 10567 10565 10563 10560 10557 10555 10553 10551 10549 10547 10546 10545 10544 10543 10542 10541 10541 10540 10539 10536 10533 10532 10531 10530 10530 10529 10529 10529 10529 10529 10529 10528 10528 10528 10527 10527 10526 10526 10527 10527 10528 10529
10654 10655 10650 10645 10644 10642 10639 10637 10634 10631 10628 10626 10624 10621 10619 10616 10609 10605 10608 10610 10608 10607 10614 10616 10610 10608 10611 10611 10610 10605 10598 10593 10586 10581 10578 10573 10571 10569 10566 10564 10560 10557 10554 10552 10551 10550 10549 10547 10544 10541 10539 10536 10533 10530 10528 10527 10525 10525 10524 10523 10522 10522 10522 10519 10516 10514 10512 10511 10511 10510 10510 10510 10510 10510 10511 10511 10511 10511 10510 10510 10510 10509 10509 10510 10510 10511
10645 10645 10643 10639 10636 10634 10631 10627 10623 10620 10617 10614 10612 10610 10606 10604 10602 10596 10593 10595 10594 10590 10597 10602 10597 10594 10594 10595 10596 10589 10581 10577 10571 10567 10565 10561 10559 10557 10554 10551 10548 10544 10540 10537 10536 10535 10533 10532 10529 10527 10524 10520 10517 10513 10510 10508 10507 10506 10506 10505 10504 10503 10503 10502 10499 10497 10495 10493 10492 10491 10491 10491 10491 10491 10491 10492 10492 10492 10493 10492 10492 10492 10492 10493 10493 10494
10635 10635 10635 10632 10627 10625 10623 10618 10613 10610 10606 10601 10599 10599 10596 10594 10594 10588 10581 10582 10581 10574 10578 10584 10583 10581 10579 10579 10579 10572 10566 10563 10558 10553 10551 10548 10546 10543 10539 10536 10533 10529 10526 10523 10521 10519 10517 10515 10513 10510 10507 10503 10500 10496 10494 10491 10488 10487 10486 10485 10484 10484 10483 10482 10481 10480 10477 10476 10474 10472 10472 10471 10471 10471 10471 10472 10473 10473 10474 10474 10474 10475 10475 10476 10476 10477
10622 10623 10626 10625 10619 10614 10612 10610 10604 10598 10594 10591 10589 10588 10587 10584 10581 10576 10570 10569 10567 10560 10559 10564 10568 10571 10570 10568 10564 10557 10553 10552 10546 10540 10536 10533 10530 10527 10523 10520 10517 10514 10511 10509 10506 10503 10501 10498 10495 10493 10489 10487 10483 10480 10477 10474 10471 10469 10467 10465 10464 10464 10464 10462 10461 10460 10459 10458 10456 10454 10453 10452 10451 10451 10451 10452 10452 10453 10454 10454 10455 10456 10457 10458 10459 10459
10607 10608 10613 10615 10609 10603 10600 10598 10592 10585 10581 10581 10579 10577 10575 10572 10567 10562 10558 10557 10555 10548 10545 10547 10553 10563 10567 10561 10552 10544 10539 10537 10532 10525 10520 10517 10514 10510 10506 10504 10501 10498 10496 10494 10491 10488 10485 10482 10478 10475 10472 10469 10467 10463 10460 10457 10454 10452 10449 10447 10445 10444 10444 10443 10442 10440 10439 10438 10436 10435 10434 10432 10431 10431 10431 10431 10432 10433 10433 10435 10436 10436 10437 10439 10440 10441
10592 10592 10597 10601 10599 10593 10587 10582 10579 10574 10570 10569 10568 10566 10564 10560 10556 10552 10550 10552 10545 10535 10532 10531 10533 10546 10556 10551 10539 10529 10524 10520 10515 10511 10507 10502 10498 10495 10492 10489 10486 10484 10481 10478 10476 10472 10469 10466 10462 10459 10455 10452 10449 10446 10443 10440 10437 10434 10431 10428 10426 10424 10423 10422 10421 10420 10419 10418 10416 10414 10413 10412 10411 10411 10410 10411 10411 10412 10412 10414 10415 10416 10417 10418 10419 10421
10580 10577 10579 10584 10585 10581 10574 10569 10567 10564 10561 10558 10556 10555 10552 10547 10544 10539 10537 10541 10535 10522 10519 10516 10512 10526 10538 10533 10521 10514 10508 10501 10495 10494 10492 10488 10484 10480 10477 10474 10471 10468 10465 10463 10460 10456 10452 10449 10446 10442 10439 10435 10432 10429 10426 10423 10420 10416 10412 10408 10406 10404 10402 10401 10401 10400 10399 10398 10397 10395 10394 10392 10391 10391 10391 10391 10391 10391 10391 10392 10394 10395 10396 10397 10398 10400
10567 10562 10562 10567 10570 10569 10562 10557 10555 10552 10549 10547 10543 10542 10539 10533 10531 10525 10519 10523 10520 10511 10509 10500 10494 10507 10518 10512 10502 10496 10490 10483 10477 10476 10474 10470 10467 10464 10461 10459 10455 10452 10449 10446 10443 10439 10435 10432 10428 10425 10421 10417 10414 10411 10408 10405 10402 10398 10394 10390 10387 10384 10382 10381 10380 10379 10378 10378 10378 10377 10376 10374 10372 10371 10371 10370 10370 10370 10371 10371 10372 10373 10375 10375 10376 10377
10552 10548 10549 10552 10555 10556 10551 10545 10540 10537 10535 10534 10531 10530 10527 10522 10518 10512 10506 10505 10500 10498 10497 10484 10478 10491 10495 10487 10484 10479 10470 10465 10462 10459 10456 10451 10449 10447 10444 10442 10438 10435 10432 10429 10425 10421 10416 10413 10410 10406 10402 10399 10396 10392 10389 10386 10383 10380 10377 10373 10370 10367 10364 10362 10360 10358 10357 10357 10357 10357 10356 10355 10354 10352 10351 10350 10349 10349 10349 10350 10351 10351 10353 10354 10354 10355
10538 10536 10537 10538 10539 10541 10541 10534 10526 10521 10521 10520 10518 10516 10514 10511 10505 10499 10496 10489 10482 10484 10484 10471 10468 10476 10472 10465 10466 10462 10453 10450 10446 10441 10438 10435 10433 10431 10428 10425 10422 10419 10416 10411 10406 10402 10398 10394 10390 10386 10382 10379 10375 10372 10369 10365 10362 10360 10358 10355 10353 10350 10347 10343 10341 10339 10337 10337 10337 10337 10336 10335 10334 10333 10332 10330 10329 10328 10328 10328 10329 10330 10330 10331 10332 10333
10526 10525 10526 10525 10522 10525 10527 10522 10515 10510 10509 10507 10505 10502 10499 10497 10493 10488 10483 10475 10468 10466 10465 10462 10461 10458 10452 10451 10450 10444 10437 10432 10427 10423 10421 10420 10418 10415 10412 10408 10405 10403 10399 10395 10389 10384 10380 10375 10371 10367 10363 10358 10355 10351 10348 10344 10341 10339 10337 10335 10333 10331 10328 10325 10323 10321 10319 10319 10318 10317 10316 10315 10314 10314 10313 10312 10311 10309 10309 10308 10308 10309 10309 10310 10310 10311
10515 10515 10516 10514 10509 10510 10510 10506 10502 10501 10498 10495 10493 10491 10488 10484 10479 10475 10468 10460 10454 10445 10442 10450 10448 10434 10433 10440 10434 10424 10419 10413 10408 10405 10405 10406 10403 10398 10394 10391 10388 10385 10380 10376 10372 10366 10361 10357 10352 10348 10343 10339 10335 10332 10328 10325 10321 10319 10317 10315 10313 10311 10309 10307 10306 10304 10303 10301 10300 10298 10297 10296 10295 10294 10293 10292 10291 10290 10289 10289 10289 10289 10289 10289 10289 10290
10503 10503 10505 10502 10497 10496 10493 10487 10486 10487 10485 10482 10480 10481 10481 10474 10466 10462 10453 10444 10438 10427 10424 10435 10430 10414 10418 10425 10415 10404 10399 10394 10391 10390 10389 10388 10385 10381 10377 10373 10369 10365 10360 10356 10352 10347 10341 10337 10332 10327 10323 10319 10316 10312 10309 10306 10304 10301 10299 10296 10294 10292 10291 10289 10288 10286 10284 10283 10282 10280 10279 10278 10276 10275 10274 10272 10271 10270 10270 10269 10269 10269 10269 10268 10268 10269
10490 10490 10492 10487 10482 10481 10476 10469 10469 10470 10467 10467 10468 10469 10470 10465 10455 10445 10436 10430 10422 10410 10410 10419 10412 10400 10404 10406 10396 10385 10379 10376 10377 10376 10372 10369 10365 10362 10358 10354 10350 10345 10340 10336 10331 10326 10321 10316 10311 10307 10303 10300 10297 10293 10290 10288 10286 10284 10282 10279 10277 10276 10275 10273 10270 10268 10266 10265 10263 10262 10262 10260 10258 10257 10255 10254 10253 10252 10251 10251 10250 10249 10248 10247 10247 10247
10475 10475 10476 10470 10465 10463 10458 10453 10453 10453 10450 10451 10455 10458 10458 10452 10439 10427 10420 10417 10406 10394 10397 10399 10390 10388 10394 10387 10375 10369 10366 10363 10361 10358 10356 10353 10349 10345 10340 10335 10331 10326 10321 10317 10311 10305 10301 10296 10292 10288 10285 10282 10279 10276 10273 10271 10269 10267 10265 10262 10261 10260 10259 10257 10254 10252 10250 10248 10247 10246 10245 10243 10241 10239 10237 10235 10234 10233 10232 10232 10230 10229 10229 10228 10227 10226
10460 10458 10457 10454 10448 10445 10445 10439 10436 10437 10434 10435 10443 10450 10444 10430 10418 10413 10409 10404 10393 10384 10382 10376 10367 10373 10379 10367 10354 10354 10353 10349 10345 10342 10340 10337 10332 10328 10322 10317 10313 10308 10303 10298 10292 10287 10282 10278 10274 10271 10268 10266 10262 10260 10258 10255 10253 10251 10248 10246 10244 10244 10242 10240 10238 10237 10235 10233 10232 10231 10229 10227 10225 10222 10220 10217 10216 10215 10214 10213 10211 10210 10210 10209 10208 10207
10447 10441 10439 10437 10430 10430 10432 10425 10421 10421 10416 10421 10438 10440 10422 10404 10400 10401 10397 10388 10381 10374 10367 10360 10355 10357 10358 10348 10340 10339 10335 10331 10329 10327 10323 10319 10314 10309 10305 10301 10296 10291 10285 10279 10274 10269 10264 10260 10257 10255 10253 10250 10247 10245 10242 10239 10237 10235 10233 10231 10229 10228 10226 10223 10221 10220 10218 10217 10215 10214 10212 10210 10208 10205 10203 10201 10199 10198 10197 10195 10194 10192 10191 10190 10189 10189
10433 10428 10423 10418 10412 10413 10415 10410 10407 10403 10400 10414 10430 10419 10394 10384 10385 10383 10377 10372 10368 10359 10351 10348 10345 10341 10337 10333 10328 10323 10319 10317 10315 10312 10307 10302 10296 10291 10288 10285 10279 10273 10267 10262 10257 10252 10247 10244 10242 10240 10237 10234 10231 10228 10225 10222 10221 10220 10218 10217 10214 10212 10209 10206 10204 10201 10199 10198 10196 10194 10193 10191 10190 10188 10186 10184 10183 10181 10180 10178 10177 10176 10174 10174 10173 10172
10418 10414 10408 10401 10395 10394 10394 10392 10386 10383 10391 10407 10409 10392 10376 10373 10368 10360 10357 10359 10355 10345 10336 10331 10328 10325 10321 10315 10310 10308 10307 10305 10301 10297 10291 10285 10279 10274 10271 10268 10262 10255 10249 10245 10241 10236 10231 10229 10227 10225 10222 10219 10216 10212 10209 10207 10206 10204 10203 10201 10198 10195 10192 10189 10187 10184 10182 10179 10177 10175 10174 10172 10171 10169 10167 10166 10165 10164 10162 10161 10160 10158 10157 10157 10157 10156
10402 10397 10390 10384 10378 10374 10375 10373 10365 10367 10384 10393 10385 10373 10364 10356 10347 10340 10340 10344 10341 10331 10321 10313 10310 10308 10301 10295 10294 10295 10293 10290 10285 10282 10276 10267 10261 10258 10255 10251 10245 10239 10234 10230 10226 10222 10218 10216 10214 10212 10209 10205 10202 10199 10196 10194 10192 10190 10188 10186 10183 10180 10177 10174 10171 10169 10166 10163 10160 10159 10157 10155 10153 10151 10150 10149 10147 10146 10145 10143 10143 10141 10141 10141 10140 10139
10385 10379 10372 10367 10361 10357 10357 10356 10351 10354 10368 10374 10368 10357 10345 10334 10330 10325 10324 10327 10326 10319 10309 10298 10291 10287 10282 10280 10281 10280 10276 10274 10271 10267 10260 10249 10243 10242 10241 10236 10229 10223 10219 10215 10211 10208 10204 10202 10200 10198 10196 10193 10190 10187 10185 10182 10179 10176 10173 10171 10168 10165 10162 10160 10157 10155 10152 10148 10146 10144 10141 10139 10137 10135 10134 10132 10131 10129 10128 10126 10126 10125 10125 10125 10124 10122
10369 10362 10357 10351 10345 10343 10341 10341 10339 10337 10345 10357 10354 10335 10320 10315 10314 10308 10304 10309 10313 10307 10294 10280 10272 10270 10269 10268 10266 10264 10261 10259 10258 10253 10242 10232 10229 10230 10228 10222 10215 10209 10204 10199 10196 10193 10190 10188 10186 10184 10182 10180 10177 10174 10171 10168 10165 10162 10159 10156 10153 10150 10148 10147 10144 10141 10138 10135 10132 10130 10127 10125 10123 10121 10119 10117 10115 10113 10111 10110 10109 10109 10109 10110 10108 10106
10353 10347 10343 10336 10331 10330 10327 10324 10324 10321 10327 10340 10334 10313 10302 10299 10295 10287 10282 10292 10301 10291 10271 10261 10259 10259 10258 10256 10253 10250 10247 10245 10244 10237 10224 10217 10217 10216 10212 10206 10200 10195 10190 10185 10181 10179 10176 10173 10172 10170 10168 10166 10163 10160 10157 10153 10150 10147 10143 10140 10137 10135 10134 10132 10130 10128 10125 10122 10119 10116 10113 10110 10109 10106 10104 10102 10100 10098 10096 10094 10093 10093 10093 10093 10093 10091
10337 10332 10328 10321 10317 10318 10311 10305 10306 10306 10312 10320 10310 10294 10288 10284 10276 10267 10263 10274 10282 10267 10248 10248 10250 10247 10244 10242 10239 10237 10233 10230 10230 10223 10210 10204 10204 10200 10195 10191 10186 10180 10176 10171 10167 10164 10161 10159 10158 10157 10154 10151 10148 10145 10142 10139 10136 10132 10129 10125 10123 10121 10119 10117 10115 10113 10111 10108 10105 10102 10099 10097 10095 10093 10090 10087 10085 10083 10081 10079 10078 10077 10076 10076 10076 10076
10321 10316 10310 10304 10304 10303 10295 10288 10287 10288 10295 10300 10287 10273 10269 10265 10259 10252 10248 10252 10254 10243 10236 10238 10236 10232 10231 10227 10223 10222 10219 10216 10214 10208 10198 10191 10189 10186 10180 10177 10172 10167 10161 10157 10154 10152 10149 10147 10145 10143 10140 10137 10134 10131 10127 10124 10122 10118 10115 10112 10110 10107 10104 10101 10099 10097 10095 10092 10090 10087 10085 10083 10081 10079 10076 10073 10070 10068 10066 10064 10063 10062 10061 10060 10059 10059
10308 10301 10293 10290 10291 10288 10280 10270 10266 10271 10282 10279 10260 10251 10251 10245 10239 10237 10232 10228 10226 10226 10228 10226 10220 10218 10216 10210 10207 10208 10205 10200 10197 10192 10184 10177 10175 10172 10167 10161 10158 10153 10148 10144 10142 10139 10136 10134 10132 10129 10126 10122 10119 10115 10112 10109 10107 10104 10102 10099 10097 10094 10090 10087 10085 10082 10079 10077 10075 10073 10071 10069 10067 10064 10061 10059 10057 10054 10052 10050 10049 10048 10046 10045 10044 10043
10293 10284 10279 10279 10277 10271 10263 10254 10250 10258 10269 10257 10235 10230 10233 10226 10220 10219 10215 10209 10210 10213 10213 10210 10208 10205 10200 10195 10195 10192 10189 10185 10181 10176 10170 10164 10161 10159 10153 10147 10143 10139 10136 10133 10129 10126 10124 10121 10118 10115 10112 10108 10104 10100 10096 10094 10092 10089 10087 10085 10082 10079 10076 10073 10070 10067 10064 10062 10060 10058 10056 10054 10052 10049 10047 10045 10043 10041 10038 10035 10035 10035 10033 10031 10030 10028
10275 10269 10266 10266 10262 10251 10245 10244 10240 10242 10247 10236 10219 10214 10213 10207 10204 10202 10198 10196 10198 10198 10195 10194 10195 10192 10186 10183 10180 10176 10175 10173 10167 10162 10157 10152 10148 10145 10140 10135 10131 10127 10124 10120 10116 10114 10111 10108 10105 10102 10098 10095 10090 10086 10083 10079 10077 10075 10073 10070 10068 10064 10061 10058 10055 10052 10049 10047 10045 10043 10041 10039 10036 10034 10032 10031 10029 10027 10024 10022 10021 10021 10019 10017 10015 10014
10257 10254 10251 10250 10245 10234 10230 10233 10230 10225 10222 10215 10206 10199 10193 10189 10191 10190 10185 10184 10183 10181 10181 10181 10181 10178 10173 10169 10165 10162 10161 10158 10153 10150 10145 10140 10135 10130 10126 10123 10119 10114 10111 10108 10105 10103 10099 10095 10093 10089 10085 10081 10077 10073 10070 10066 10064 10063 10060 10057 10053 10050 10047 10044 10040 10037 10035 10032 10031 10029 10026 10024 10021 10018 10017 10016 10015 10013 10011 10009 10008 10006 10004 10002 10001 10002
10240 10238 10235 10234 10229 10220 10218 10219 10214 10207 10203 10196 10189 10184 10178 10174 10177 10177 10173 10171 10168 10165 10166 10167 10166 10165 10160 10156 10153 10149 10146 10143 10139 10136 10132 10127 10121 10116 10112 10110 10106 10101 10099 10097 10095 10092 10088 10084 10081 10076 10072 10068 10063 10059 10056 10053 10051 10050 10047 10043 10039 10036 10033 10030 10026 10023 10020 10018 10017 10015 10012 10010 10007 10004 10003 10002 10000 9999 9997 9995 9994 9992 9989 9988 9988 9990
10224 10222 10220 10219 10214 10207 10206 10203 10194 10188 10187 10179 10171 10168 10165 10163 10163 10161 10158 10157 10155 10151 10152 10152 10152 10150 10147 10143 10141 10138 10135 10131 10126 10122 10118 10113 10108 10103 10099 10095 10091 10087 10085 10084 10083 10081 10077 10073 10069 10064 10059 10055 10050 10047 10044 10041 10039 10037 10033 10029 10026 10022 10019 10016 10012 10009 10006 10004 10003 10001 9999 9996 9993 9991 9990 9988 9986 9985 9984 9982 9981 9978 9976 9976 9977 9977
10210 10207 10204 10203 10200 10194 10191 10188 10178 10170 10167 10161 10154 10153 10152 10150 10149 10146 10143 10143 10140 10136 10136 10138 10136 10135 10133 10131 10129 10125 10122 10118 10113 10109 10105 10100 10095 10090 10086 10081 10078 10074 10071 10070 10069 10067 10064 10060 10056 10051 10047 10042 10038 10035 10032 10029 10027 10024 10020 10016 10012 10009 10006 10002 9999 9996 9993 9990 9989 9987 9985 9983 9980 9978 9976 9975 9973 9971 9970 9968 9967 9965 9964 9964 9964 9963
10196 10193 10190 10188 10185 10178 10174 10173 10164 10151 10147 10146 10143 10140 10137 10135 10135 10134 10132 10128 10124 10121 10121 10121 10119 10118 10118 10116 10113 10109 10107 10104 10099 10095 10091 10085 10080 10077 10073 10070 10067 10061 10058 10056 10054 10052 10050 10046 10042 10038 10034 10030 10026 10023 10019 10017 10015 10012 10008 10003 10000 9997 9993 9990 9987 9983 9980 9978 9977 9975 9972 9969 9967 9965 9963 9962 9960 9958 9956 9954 9953 9952 9951 9951 9951 9950
10179 10180 10179 10174 10170 10165 10158 10151 10141 10130 10130 10134 10131 10127 10125 10123 10122 10122 10118 10112 10109 10107 10106 10104 10102 10101 10100 10098 10094 10091 10090 10089 10084 10079 10075 10071 10066 10062 10061 10058 10054 10049 10046 10043 10040 10037 10035 10031 10027 10024 10020 10017 10014 10011 10007 10004 10002 10000 9996 9991 9988 9985 9981 9978 9975 9972 9969 9967 9965 9963 9960 9957 9955 9953 9951 9949 9947 9945 9943 9940 9939 9939 9938 9936 9936 9937
10164 10167 10166 10159 10157 10155 10144 10130 10118 10112 10113 10116 10115 10115 10115 10113 10110 10108 10104 10099 10095 10092 10089 10086 10085 10083 10081 10079 10076 10073 10072 10072 10068 10063 10060 10057 10052 10048 10046 10043 10039 10036 10033 10030 10027 10024 10021 10017 10014 10010 10007 10004 10002 9998 9994 9991 9989 9987 9983 9978 9975 9973 9970 9967 9964 9960 9957 9955 9953 9951 9948 9946 9943 9941 9939 9938 9936 9933 9930 9927 9925 9926 9926 9924 9922 9922
10151 10155 10153 10146 10142 10138 10129 10116 10103 10095 10094 10098 10103 10107 10106 10101 10098 10095 10091 10087 10083 10078 10074 10070 10068 10067 10065 10062 10059 10056 10056 10055 10053 10049 10046 10042 10038 10035 10032 10028 10025 10022 10019 10016 10014 10010 10006 10003 9999 9996 9993 9991 9988 9985 9981 9978 9976 9974 9970 9965 9963 9961 9958 9956 9953 9949 9946 9943 9941 9939 9937 9934 9932 9930 9928 9926 9924 9922 9920 9916 9911 9909 9911 9913 9912 9909